owner,sensor,date,latitude,longitude,vertical_datum,sea_water_practical_salinity,qcFlag 
WAVCIS,ioos:station:WAVCIS:CSI16:1,2010-09-01T00:00:00Z,29.4012,-89.0355,1.0,29.017,11111222 
WAVCIS,ioos:station:WAVCIS:CSI16:1,2010-09-01T00:15:00Z,29.4012,-89.0355,1.0,29.017,11111222 
WAVCIS,ioos:station:WAVCIS:CSI16:1,2010-09-01T00:30:00Z,29.4012,-89.0355,1.0,29.009,11111222 
WAVCIS,ioos:station:WAVCIS:CSI16:1,2010-09-01T00:45:00Z,29.4012,-89.0355,1.0,28.988,11111222 
WAVCIS,ioos:station:WAVCIS:CSI16:1,2010-09-01T01:00:00Z,29.4012,-89.0355,1.0,28.984,11111222 
WAVCIS,ioos:station:WAVCIS:CSI16:1,2010-09-01T01:15:00Z,29.4012,-89.0355,1.0,28.98,11111222 
WAVCIS,ioos:station:WAVCIS:CSI16:1,2010-09-01T01:30:00Z,29.4012,-89.0355,1.0,28.985,11111222 
WAVCIS,ioos:station:WAVCIS:CSI16:1,2010-09-01T01:45:00Z,29.4012,-89.0355,1.0,28.989,11111222 
WAVCIS,ioos:station:WAVCIS:CSI16:1,2010-09-01T02:00:00Z,29.4012,-89.0355,1.0,28.999,11111222 
WAVCIS,ioos:station:WAVCIS:CSI16:1,2010-09-01T02:15:00Z,29.4012,-89.0355,1.0,28.985,11111222 
WAVCIS,ioos:station:WAVCIS:CSI16:1,2010-09-01T02:30:00Z,29.4012,-89.0355,1.0,28.96,11111222 
WAVCIS,ioos:station:WAVCIS:CSI16:1,2010-09-01T02:45:00Z,29.4012,-89.0355,1.0,28.958,11111222 
WAVCIS,ioos:station:WAVCIS:CSI16:1,2010-09-01T03:00:00Z,29.4012,-89.0355,1.0,28.931,11111222 
WAVCIS,ioos:station:WAVCIS:CSI16:1,2010-09-01T03:15:00Z,29.4012,-89.0355,1.0,28.942,11111222 
WAVCIS,ioos:station:WAVCIS:CSI16:1,2010-09-01T03:30:00Z,29.4012,-89.0355,1.0,28.973,11111222 
WAVCIS,ioos:station:WAVCIS:CSI16:1,2010-09-01T03:45:00Z,29.4012,-89.0355,1.0,28.931,11111222 
WAVCIS,ioos:station:WAVCIS:CSI16:1,2010-09-01T04:00:00Z,29.4012,-89.0355,1.0,28.936,11111222 
WAVCIS,ioos:station:WAVCIS:CSI16:1,2010-09-01T04:15:00Z,29.4012,-89.0355,1.0,28.936,11111222 
WAVCIS,ioos:station:WAVCIS:CSI16:1,2010-09-01T04:30:00Z,29.4012,-89.0355,1.0,28.934,11111222 
WAVCIS,ioos:station:WAVCIS:CSI16:1,2010-09-01T04:45:00Z,29.4012,-89.0355,1.0,28.937,11111222 
WAVCIS,ioos:station:WAVCIS:CSI16:1,2010-09-01T05:00:00Z,29.4012,-89.0355,1.0,28.943,11111222 
WAVCIS,ioos:station:WAVCIS:CSI16:1,2010-09-01T05:15:00Z,29.4012,-89.0355,1.0,28.94,11111222 
WAVCIS,ioos:station:WAVCIS:CSI16:1,2010-09-01T05:30:00Z,29.4012,-89.0355,1.0,28.96,11111222 
WAVCIS,ioos:station:WAVCIS:CSI16:1,2010-09-01T05:45:00Z,29.4012,-89.0355,1.0,28.946,11111222 
WAVCIS,ioos:station:WAVCIS:CSI16:1,2010-09-01T06:00:00Z,29.4012,-89.0355,1.0,28.94,11111222 
WAVCIS,ioos:station:WAVCIS:CSI16:1,2010-09-01T06:15:00Z,29.4012,-89.0355,1.0,28.942,11111222 
WAVCIS,ioos:station:WAVCIS:CSI16:1,2010-09-01T06:30:00Z,29.4012,-89.0355,1.0,28.94,11111222 
WAVCIS,ioos:station:WAVCIS:CSI16:1,2010-09-01T06:45:00Z,29.4012,-89.0355,1.0,28.935,11111222 
WAVCIS,ioos:station:WAVCIS:CSI16:1,2010-09-01T07:00:00Z,29.4012,-89.0355,1.0,28.942,11111222 
WAVCIS,ioos:station:WAVCIS:CSI16:1,2010-09-01T07:15:00Z,29.4012,-89.0355,1.0,28.945,11111222 
WAVCIS,ioos:station:WAVCIS:CSI16:1,2010-09-01T07:30:00Z,29.4012,-89.0355,1.0,28.941,11111222 
WAVCIS,ioos:station:WAVCIS:CSI16:1,2010-09-01T07:45:00Z,29.4012,-89.0355,1.0,28.941,11111222 
WAVCIS,ioos:station:WAVCIS:CSI16:1,2010-09-01T08:00:00Z,29.4012,-89.0355,1.0,28.938,11111222 
WAVCIS,ioos:station:WAVCIS:CSI16:1,2010-09-01T08:15:00Z,29.4012,-89.0355,1.0,28.944,11111222 
WAVCIS,ioos:station:WAVCIS:CSI16:1,2010-09-01T08:30:00Z,29.4012,-89.0355,1.0,28.943,11111222 
WAVCIS,ioos:station:WAVCIS:CSI16:1,2010-09-01T08:45:00Z,29.4012,-89.0355,1.0,28.944,11111222 
WAVCIS,ioos:station:WAVCIS:CSI16:1,2010-09-01T09:00:00Z,29.4012,-89.0355,1.0,28.945,11111222 
WAVCIS,ioos:station:WAVCIS:CSI16:1,2010-09-01T09:15:00Z,29.4012,-89.0355,1.0,28.942,11111222 
WAVCIS,ioos:station:WAVCIS:CSI16:1,2010-09-01T09:30:00Z,29.4012,-89.0355,1.0,28.945,11111222 
WAVCIS,ioos:station:WAVCIS:CSI16:1,2010-09-01T09:45:00Z,29.4012,-89.0355,1.0,28.951,11111222 
WAVCIS,ioos:station:WAVCIS:CSI16:1,2010-09-01T10:00:00Z,29.4012,-89.0355,1.0,28.953,11111222 
WAVCIS,ioos:station:WAVCIS:CSI16:1,2010-09-01T10:15:00Z,29.4012,-89.0355,1.0,28.95,11111222 
WAVCIS,ioos:station:WAVCIS:CSI16:1,2010-09-01T10:30:00Z,29.4012,-89.0355,1.0,28.947,11111222 
WAVCIS,ioos:station:WAVCIS:CSI16:1,2010-09-01T10:45:00Z,29.4012,-89.0355,1.0,28.953,11111222 
WAVCIS,ioos:station:WAVCIS:CSI16:1,2010-09-01T11:00:00Z,29.4012,-89.0355,1.0,28.96,11111222 
WAVCIS,ioos:station:WAVCIS:CSI16:1,2010-09-01T11:15:00Z,29.4012,-89.0355,1.0,28.96,11111222 
WAVCIS,ioos:station:WAVCIS:CSI16:1,2010-09-01T11:30:00Z,29.4012,-89.0355,1.0,28.963,11111222 
WAVCIS,ioos:station:WAVCIS:CSI16:1,2010-09-01T11:45:00Z,29.4012,-89.0355,1.0,28.985,11111222 
WAVCIS,ioos:station:WAVCIS:CSI16:1,2010-09-01T12:00:00Z,29.4012,-89.0355,1.0,28.972,11111222 
WAVCIS,ioos:station:WAVCIS:CSI16:1,2010-09-01T12:15:00Z,29.4012,-89.0355,1.0,28.922,11111222 
WAVCIS,ioos:station:WAVCIS:CSI16:1,2010-09-01T12:30:00Z,29.4012,-89.0355,1.0,28.627,11111222 
WAVCIS,ioos:station:WAVCIS:CSI16:1,2010-09-01T12:45:00Z,29.4012,-89.0355,1.0,28.973,11111222 
WAVCIS,ioos:station:WAVCIS:CSI16:1,2010-09-01T13:00:00Z,29.4012,-89.0355,1.0,28.891,11111222 
WAVCIS,ioos:station:WAVCIS:CSI16:1,2010-09-01T13:15:00Z,29.4012,-89.0355,1.0,28.966,11111222 
WAVCIS,ioos:station:WAVCIS:CSI16:1,2010-09-01T13:30:00Z,29.4012,-89.0355,1.0,28.975,11111222 
WAVCIS,ioos:station:WAVCIS:CSI16:1,2010-09-01T13:45:00Z,29.4012,-89.0355,1.0,28.977,11111222 
WAVCIS,ioos:station:WAVCIS:CSI16:1,2010-09-01T14:00:00Z,29.4012,-89.0355,1.0,28.985,11111222 
WAVCIS,ioos:station:WAVCIS:CSI16:1,2010-09-01T14:15:00Z,29.4012,-89.0355,1.0,25.669,11111222 
WAVCIS,ioos:station:WAVCIS:CSI16:1,2010-09-01T14:30:00Z,29.4012,-89.0355,1.0,25.188,11111222 
WAVCIS,ioos:station:WAVCIS:CSI16:1,2010-09-01T14:45:00Z,29.4012,-89.0355,1.0,24.774,11111222 
WAVCIS,ioos:station:WAVCIS:CSI16:1,2010-09-01T15:00:00Z,29.4012,-89.0355,1.0,24.536,11111222 
WAVCIS,ioos:station:WAVCIS:CSI16:1,2010-09-01T15:15:00Z,29.4012,-89.0355,1.0,23.633,11111222 
WAVCIS,ioos:station:WAVCIS:CSI16:1,2010-09-01T15:30:00Z,29.4012,-89.0355,1.0,23.382,11111222 
WAVCIS,ioos:station:WAVCIS:CSI16:1,2010-09-01T15:45:00Z,29.4012,-89.0355,1.0,23.514,11111222 
WAVCIS,ioos:station:WAVCIS:CSI16:1,2010-09-01T16:00:00Z,29.4012,-89.0355,1.0,23.67,11111222 
WAVCIS,ioos:station:WAVCIS:CSI16:1,2010-09-01T16:15:00Z,29.4012,-89.0355,1.0,23.849,11111222 
WAVCIS,ioos:station:WAVCIS:CSI16:1,2010-09-01T16:30:00Z,29.4012,-89.0355,1.0,23.727,11111222 
WAVCIS,ioos:station:WAVCIS:CSI16:1,2010-09-01T16:45:00Z,29.4012,-89.0355,1.0,23.91,11111222 
WAVCIS,ioos:station:WAVCIS:CSI16:1,2010-09-01T17:00:00Z,29.4012,-89.0355,1.0,24.167,11111222 
WAVCIS,ioos:station:WAVCIS:CSI16:1,2010-09-01T17:15:00Z,29.4012,-89.0355,1.0,25.605,11111222 
WAVCIS,ioos:station:WAVCIS:CSI16:1,2010-09-01T17:30:00Z,29.4012,-89.0355,1.0,25.331,11111222 
WAVCIS,ioos:station:WAVCIS:CSI16:1,2010-09-01T17:45:00Z,29.4012,-89.0355,1.0,24.42,11111222 
WAVCIS,ioos:station:WAVCIS:CSI16:1,2010-09-01T18:00:00Z,29.4012,-89.0355,1.0,24.481,11111222 
WAVCIS,ioos:station:WAVCIS:CSI16:1,2010-09-01T18:15:00Z,29.4012,-89.0355,1.0,25.188,11111222 
WAVCIS,ioos:station:WAVCIS:CSI16:1,2010-09-01T18:30:00Z,29.4012,-89.0355,1.0,26.741,11111222 
WAVCIS,ioos:station:WAVCIS:CSI16:1,2010-09-01T18:45:00Z,29.4012,-89.0355,1.0,26.419,11111222 
WAVCIS,ioos:station:WAVCIS:CSI16:1,2010-09-01T19:00:00Z,29.4012,-89.0355,1.0,26.631,11111222 
WAVCIS,ioos:station:WAVCIS:CSI16:1,2010-09-01T19:15:00Z,29.4012,-89.0355,1.0,26.859,11111222 
WAVCIS,ioos:station:WAVCIS:CSI16:1,2010-09-01T19:30:00Z,29.4012,-89.0355,1.0,27.074,11111222 
WAVCIS,ioos:station:WAVCIS:CSI16:1,2010-09-01T19:45:00Z,29.4012,-89.0355,1.0,27.282,11111222 
WAVCIS,ioos:station:WAVCIS:CSI16:1,2010-09-01T20:00:00Z,29.4012,-89.0355,1.0,27.162,11111222 
WAVCIS,ioos:station:WAVCIS:CSI16:1,2010-09-01T20:15:00Z,29.4012,-89.0355,1.0,27.712,11111222 
WAVCIS,ioos:station:WAVCIS:CSI16:1,2010-09-01T20:30:00Z,29.4012,-89.0355,1.0,27.455,11111222 
WAVCIS,ioos:station:WAVCIS:CSI16:1,2010-09-01T20:45:00Z,29.4012,-89.0355,1.0,27.93,11111222 
WAVCIS,ioos:station:WAVCIS:CSI16:1,2010-09-01T21:00:00Z,29.4012,-89.0355,1.0,28.097,11111222 
WAVCIS,ioos:station:WAVCIS:CSI16:1,2010-09-01T21:15:00Z,29.4012,-89.0355,1.0,28.293,11111222 
WAVCIS,ioos:station:WAVCIS:CSI16:1,2010-09-01T21:30:00Z,29.4012,-89.0355,1.0,28.39,11111222 
WAVCIS,ioos:station:WAVCIS:CSI16:1,2010-09-01T21:45:00Z,29.4012,-89.0355,1.0,28.479,11111222 
WAVCIS,ioos:station:WAVCIS:CSI16:1,2010-09-01T22:00:00Z,29.4012,-89.0355,1.0,28.691,11111222 
WAVCIS,ioos:station:WAVCIS:CSI16:1,2010-09-01T22:15:00Z,29.4012,-89.0355,1.0,28.948,11111222 
WAVCIS,ioos:station:WAVCIS:CSI16:1,2010-09-01T22:30:00Z,29.4012,-89.0355,1.0,29.037,11111222 
WAVCIS,ioos:station:WAVCIS:CSI16:1,2010-09-01T22:45:00Z,29.4012,-89.0355,1.0,28.442,11111222 
WAVCIS,ioos:station:WAVCIS:CSI16:1,2010-09-01T23:00:00Z,29.4012,-89.0355,1.0,28.639,11111222 
WAVCIS,ioos:station:WAVCIS:CSI16:1,2010-09-01T23:15:00Z,29.4012,-89.0355,1.0,28.488,11111222 
WAVCIS,ioos:station:WAVCIS:CSI16:1,2010-09-01T23:30:00Z,29.4012,-89.0355,1.0,28.347,11111222 
WAVCIS,ioos:station:WAVCIS:CSI16:1,2010-09-01T23:45:00Z,29.4012,-89.0355,1.0,28.676,11111222 
WAVCIS,ioos:station:WAVCIS:CSI16:1,2010-09-02T00:00:00Z,29.4012,-89.0355,1.0,28.34,11111222 
WAVCIS,ioos:station:WAVCIS:CSI16:1,2010-09-02T00:15:00Z,29.4012,-89.0355,1.0,28.617,11111222 
WAVCIS,ioos:station:WAVCIS:CSI16:1,2010-09-02T00:30:00Z,29.4012,-89.0355,1.0,28.552,11111222 
WAVCIS,ioos:station:WAVCIS:CSI16:1,2010-09-02T00:45:00Z,29.4012,-89.0355,1.0,26.531,11111222 
WAVCIS,ioos:station:WAVCIS:CSI16:1,2010-09-02T01:00:00Z,29.4012,-89.0355,1.0,27.33,11111222 
WAVCIS,ioos:station:WAVCIS:CSI16:1,2010-09-02T01:15:00Z,29.4012,-89.0355,1.0,27.481,11111222 
WAVCIS,ioos:station:WAVCIS:CSI16:1,2010-09-02T01:30:00Z,29.4012,-89.0355,1.0,28.017,11111222 
WAVCIS,ioos:station:WAVCIS:CSI16:1,2010-09-02T01:45:00Z,29.4012,-89.0355,1.0,28.129,11111222 
WAVCIS,ioos:station:WAVCIS:CSI16:1,2010-09-02T02:00:00Z,29.4012,-89.0355,1.0,28.006,11111222 
WAVCIS,ioos:station:WAVCIS:CSI16:1,2010-09-02T02:15:00Z,29.4012,-89.0355,1.0,27.893,11111222 
WAVCIS,ioos:station:WAVCIS:CSI16:1,2010-09-02T02:30:00Z,29.4012,-89.0355,1.0,27.756,11111222 
WAVCIS,ioos:station:WAVCIS:CSI16:1,2010-09-02T02:45:00Z,29.4012,-89.0355,1.0,28.223,11111222 
WAVCIS,ioos:station:WAVCIS:CSI16:1,2010-09-02T03:00:00Z,29.4012,-89.0355,1.0,28.148,11111222 
WAVCIS,ioos:station:WAVCIS:CSI16:1,2010-09-02T03:15:00Z,29.4012,-89.0355,1.0,27.872,11111222 
WAVCIS,ioos:station:WAVCIS:CSI16:1,2010-09-02T03:30:00Z,29.4012,-89.0355,1.0,28.014,11111222 
WAVCIS,ioos:station:WAVCIS:CSI16:1,2010-09-02T03:45:00Z,29.4012,-89.0355,1.0,28.163,11111222 
WAVCIS,ioos:station:WAVCIS:CSI16:1,2010-09-02T04:00:00Z,29.4012,-89.0355,1.0,28.055,11111222 
WAVCIS,ioos:station:WAVCIS:CSI16:1,2010-09-02T04:15:00Z,29.4012,-89.0355,1.0,28.192,11111222 
WAVCIS,ioos:station:WAVCIS:CSI16:1,2010-09-02T04:30:00Z,29.4012,-89.0355,1.0,28.105,11111222 
WAVCIS,ioos:station:WAVCIS:CSI16:1,2010-09-02T04:45:00Z,29.4012,-89.0355,1.0,28.265,11111222 
WAVCIS,ioos:station:WAVCIS:CSI16:1,2010-09-02T05:00:00Z,29.4012,-89.0355,1.0,28.167,11111222 
WAVCIS,ioos:station:WAVCIS:CSI16:1,2010-09-02T05:15:00Z,29.4012,-89.0355,1.0,28.268,11111222 
WAVCIS,ioos:station:WAVCIS:CSI16:1,2010-09-02T05:30:00Z,29.4012,-89.0355,1.0,28.18,11111222 
WAVCIS,ioos:station:WAVCIS:CSI16:1,2010-09-02T05:45:00Z,29.4012,-89.0355,1.0,28.209,11111222 
WAVCIS,ioos:station:WAVCIS:CSI16:1,2010-09-02T06:00:00Z,29.4012,-89.0355,1.0,28.65,11111222 
WAVCIS,ioos:station:WAVCIS:CSI16:1,2010-09-02T06:15:00Z,29.4012,-89.0355,1.0,28.89,11111222 
WAVCIS,ioos:station:WAVCIS:CSI16:1,2010-09-02T06:30:00Z,29.4012,-89.0355,1.0,28.911,11111222 
WAVCIS,ioos:station:WAVCIS:CSI16:1,2010-09-02T06:45:00Z,29.4012,-89.0355,1.0,28.913,11111222 
WAVCIS,ioos:station:WAVCIS:CSI16:1,2010-09-02T07:00:00Z,29.4012,-89.0355,1.0,28.898,11111222 
WAVCIS,ioos:station:WAVCIS:CSI16:1,2010-09-02T07:15:00Z,29.4012,-89.0355,1.0,28.094,11111222 
WAVCIS,ioos:station:WAVCIS:CSI16:1,2010-09-02T07:30:00Z,29.4012,-89.0355,1.0,28.128,11111222 
WAVCIS,ioos:station:WAVCIS:CSI16:1,2010-09-02T07:45:00Z,29.4012,-89.0355,1.0,27.969,11111222 
WAVCIS,ioos:station:WAVCIS:CSI16:1,2010-09-02T08:00:00Z,29.4012,-89.0355,1.0,27.685,11111222 
WAVCIS,ioos:station:WAVCIS:CSI16:1,2010-09-02T08:15:00Z,29.4012,-89.0355,1.0,27.717,11111222 
WAVCIS,ioos:station:WAVCIS:CSI16:1,2010-09-02T08:30:00Z,29.4012,-89.0355,1.0,26.744,11111222 
WAVCIS,ioos:station:WAVCIS:CSI16:1,2010-09-02T08:45:00Z,29.4012,-89.0355,1.0,26.57,11111222 
WAVCIS,ioos:station:WAVCIS:CSI16:1,2010-09-02T09:00:00Z,29.4012,-89.0355,1.0,25.822,11111222 
WAVCIS,ioos:station:WAVCIS:CSI16:1,2010-09-02T09:15:00Z,29.4012,-89.0355,1.0,25.098,11111222 
WAVCIS,ioos:station:WAVCIS:CSI16:1,2010-09-02T09:30:00Z,29.4012,-89.0355,1.0,25.157,11111222 
WAVCIS,ioos:station:WAVCIS:CSI16:1,2010-09-02T09:45:00Z,29.4012,-89.0355,1.0,24.581,11111222 
WAVCIS,ioos:station:WAVCIS:CSI16:1,2010-09-02T10:00:00Z,29.4012,-89.0355,1.0,24.836,11111222 
WAVCIS,ioos:station:WAVCIS:CSI16:1,2010-09-02T10:15:00Z,29.4012,-89.0355,1.0,24.355,11111222 
WAVCIS,ioos:station:WAVCIS:CSI16:1,2010-09-02T10:30:00Z,29.4012,-89.0355,1.0,23.835,11111222 
WAVCIS,ioos:station:WAVCIS:CSI16:1,2010-09-02T10:45:00Z,29.4012,-89.0355,1.0,23.374,11111222 
WAVCIS,ioos:station:WAVCIS:CSI16:1,2010-09-02T11:00:00Z,29.4012,-89.0355,1.0,23.402,11111222 
WAVCIS,ioos:station:WAVCIS:CSI16:1,2010-09-02T11:15:00Z,29.4012,-89.0355,1.0,23.215,11111222 
WAVCIS,ioos:station:WAVCIS:CSI16:1,2010-09-02T11:30:00Z,29.4012,-89.0355,1.0,22.998,11111222 
WAVCIS,ioos:station:WAVCIS:CSI16:1,2010-09-02T11:45:00Z,29.4012,-89.0355,1.0,22.904,11111222 
WAVCIS,ioos:station:WAVCIS:CSI16:1,2010-09-02T12:00:00Z,29.4012,-89.0355,1.0,22.383,11111222 
WAVCIS,ioos:station:WAVCIS:CSI16:1,2010-09-02T12:15:00Z,29.4012,-89.0355,1.0,22.107,11111222 
WAVCIS,ioos:station:WAVCIS:CSI16:1,2010-09-02T12:30:00Z,29.4012,-89.0355,1.0,22.037,11111222 
WAVCIS,ioos:station:WAVCIS:CSI16:1,2010-09-02T12:45:00Z,29.4012,-89.0355,1.0,22.802,11111222 
WAVCIS,ioos:station:WAVCIS:CSI16:1,2010-09-02T13:00:00Z,29.4012,-89.0355,1.0,21.525,11111222 
WAVCIS,ioos:station:WAVCIS:CSI16:1,2010-09-02T13:15:00Z,29.4012,-89.0355,1.0,21.011,11111222 
WAVCIS,ioos:station:WAVCIS:CSI16:1,2010-09-02T13:30:00Z,29.4012,-89.0355,1.0,20.911,11111222 
WAVCIS,ioos:station:WAVCIS:CSI16:1,2010-09-02T13:45:00Z,29.4012,-89.0355,1.0,20.79,11111222 
WAVCIS,ioos:station:WAVCIS:CSI16:1,2010-09-02T14:00:00Z,29.4012,-89.0355,1.0,20.705,11111222 
WAVCIS,ioos:station:WAVCIS:CSI16:1,2010-09-02T14:15:00Z,29.4012,-89.0355,1.0,20.4,11111222 
WAVCIS,ioos:station:WAVCIS:CSI16:1,2010-09-02T14:30:00Z,29.4012,-89.0355,1.0,20.236,11111222 
WAVCIS,ioos:station:WAVCIS:CSI16:1,2010-09-02T14:45:00Z,29.4012,-89.0355,1.0,19.746,11111222 
WAVCIS,ioos:station:WAVCIS:CSI16:1,2010-09-02T15:00:00Z,29.4012,-89.0355,1.0,20.379,11111222 
WAVCIS,ioos:station:WAVCIS:CSI16:1,2010-09-02T15:15:00Z,29.4012,-89.0355,1.0,20.17,11111222 
WAVCIS,ioos:station:WAVCIS:CSI16:1,2010-09-02T15:30:00Z,29.4012,-89.0355,1.0,20.443,11111222 
WAVCIS,ioos:station:WAVCIS:CSI16:1,2010-09-02T15:45:00Z,29.4012,-89.0355,1.0,21.311,11111222 
WAVCIS,ioos:station:WAVCIS:CSI16:1,2010-09-02T16:00:00Z,29.4012,-89.0355,1.0,20.731,11111222 
WAVCIS,ioos:station:WAVCIS:CSI16:1,2010-09-02T16:15:00Z,29.4012,-89.0355,1.0,22.506,11111222 
WAVCIS,ioos:station:WAVCIS:CSI16:1,2010-09-02T16:30:00Z,29.4012,-89.0355,1.0,20.431,11111222 
WAVCIS,ioos:station:WAVCIS:CSI16:1,2010-09-02T16:45:00Z,29.4012,-89.0355,1.0,20.503,11111222 
WAVCIS,ioos:station:WAVCIS:CSI16:1,2010-09-02T17:00:00Z,29.4012,-89.0355,1.0,19.0,11111222 
WAVCIS,ioos:station:WAVCIS:CSI16:1,2010-09-02T17:15:00Z,29.4012,-89.0355,1.0,18.614,11111222 
WAVCIS,ioos:station:WAVCIS:CSI16:1,2010-09-02T17:30:00Z,29.4012,-89.0355,1.0,19.094,11111222 
WAVCIS,ioos:station:WAVCIS:CSI16:1,2010-09-02T17:45:00Z,29.4012,-89.0355,1.0,18.506,11111222 
WAVCIS,ioos:station:WAVCIS:CSI16:1,2010-09-02T18:00:00Z,29.4012,-89.0355,1.0,18.717,11111222 
WAVCIS,ioos:station:WAVCIS:CSI16:1,2010-09-02T18:15:00Z,29.4012,-89.0355,1.0,18.789,11111222 
WAVCIS,ioos:station:WAVCIS:CSI16:1,2010-09-02T18:30:00Z,29.4012,-89.0355,1.0,18.646,11111222 
WAVCIS,ioos:station:WAVCIS:CSI16:1,2010-09-02T18:45:00Z,29.4012,-89.0355,1.0,18.545,11111222 
WAVCIS,ioos:station:WAVCIS:CSI16:1,2010-09-02T19:00:00Z,29.4012,-89.0355,1.0,18.402,11111222 
WAVCIS,ioos:station:WAVCIS:CSI16:1,2010-09-02T19:15:00Z,29.4012,-89.0355,1.0,18.57,11111222 
WAVCIS,ioos:station:WAVCIS:CSI16:1,2010-09-02T19:30:00Z,29.4012,-89.0355,1.0,19.014,11111222 
WAVCIS,ioos:station:WAVCIS:CSI16:1,2010-09-02T19:45:00Z,29.4012,-89.0355,1.0,19.633,11111222 
WAVCIS,ioos:station:WAVCIS:CSI16:1,2010-09-02T20:00:00Z,29.4012,-89.0355,1.0,21.711,11111222 
WAVCIS,ioos:station:WAVCIS:CSI16:1,2010-09-02T20:15:00Z,29.4012,-89.0355,1.0,22.609,11111222 
WAVCIS,ioos:station:WAVCIS:CSI16:1,2010-09-02T20:30:00Z,29.4012,-89.0355,1.0,23.69,11111222 
WAVCIS,ioos:station:WAVCIS:CSI16:1,2010-09-02T20:45:00Z,29.4012,-89.0355,1.0,24.65,11111222 
WAVCIS,ioos:station:WAVCIS:CSI16:1,2010-09-02T21:00:00Z,29.4012,-89.0355,1.0,25.496,11111222 
WAVCIS,ioos:station:WAVCIS:CSI16:1,2010-09-02T21:15:00Z,29.4012,-89.0355,1.0,26.11,11111222 
WAVCIS,ioos:station:WAVCIS:CSI16:1,2010-09-02T21:30:00Z,29.4012,-89.0355,1.0,25.993,11111222 
WAVCIS,ioos:station:WAVCIS:CSI16:1,2010-09-02T21:45:00Z,29.4012,-89.0355,1.0,25.956,11111222 
WAVCIS,ioos:station:WAVCIS:CSI16:1,2010-09-02T22:00:00Z,29.4012,-89.0355,1.0,26.093,11111222 
WAVCIS,ioos:station:WAVCIS:CSI16:1,2010-09-02T22:15:00Z,29.4012,-89.0355,1.0,26.239,11111222 
WAVCIS,ioos:station:WAVCIS:CSI16:1,2010-09-02T22:30:00Z,29.4012,-89.0355,1.0,26.225,11111222 
WAVCIS,ioos:station:WAVCIS:CSI16:1,2010-09-02T22:45:00Z,29.4012,-89.0355,1.0,26.965,11111222 
WAVCIS,ioos:station:WAVCIS:CSI16:1,2010-09-02T23:00:00Z,29.4012,-89.0355,1.0,27.042,11111222 
WAVCIS,ioos:station:WAVCIS:CSI16:1,2010-09-02T23:15:00Z,29.4012,-89.0355,1.0,27.345,11111222 
WAVCIS,ioos:station:WAVCIS:CSI16:1,2010-09-02T23:30:00Z,29.4012,-89.0355,1.0,27.517,11111222 
WAVCIS,ioos:station:WAVCIS:CSI16:1,2010-09-02T23:45:00Z,29.4012,-89.0355,1.0,27.61,11111222 
WAVCIS,ioos:station:WAVCIS:CSI16:1,2010-09-03T00:00:00Z,29.4012,-89.0355,1.0,27.799,11111222 
WAVCIS,ioos:station:WAVCIS:CSI16:1,2010-09-03T00:15:00Z,29.4012,-89.0355,1.0,27.659,11111222 
WAVCIS,ioos:station:WAVCIS:CSI16:1,2010-09-03T00:30:00Z,29.4012,-89.0355,1.0,27.61,11111222 
WAVCIS,ioos:station:WAVCIS:CSI16:1,2010-09-03T00:45:00Z,29.4012,-89.0355,1.0,27.529,11111222 
WAVCIS,ioos:station:WAVCIS:CSI16:1,2010-09-03T01:00:00Z,29.4012,-89.0355,1.0,27.928,11111222 
WAVCIS,ioos:station:WAVCIS:CSI16:1,2010-09-03T01:15:00Z,29.4012,-89.0355,1.0,27.775,11111222 
WAVCIS,ioos:station:WAVCIS:CSI16:1,2010-09-03T01:30:00Z,29.4012,-89.0355,1.0,26.441,11111222 
WAVCIS,ioos:station:WAVCIS:CSI16:1,2010-09-03T01:45:00Z,29.4012,-89.0355,1.0,26.579,11111222 
WAVCIS,ioos:station:WAVCIS:CSI16:1,2010-09-03T02:00:00Z,29.4012,-89.0355,1.0,26.559,11111222 
WAVCIS,ioos:station:WAVCIS:CSI16:1,2010-09-03T02:15:00Z,29.4012,-89.0355,1.0,26.886,11111222 
WAVCIS,ioos:station:WAVCIS:CSI16:1,2010-09-03T02:30:00Z,29.4012,-89.0355,1.0,26.799,11111222 
WAVCIS,ioos:station:WAVCIS:CSI16:1,2010-09-03T02:45:00Z,29.4012,-89.0355,1.0,26.681,11111222 
WAVCIS,ioos:station:WAVCIS:CSI16:1,2010-09-03T03:00:00Z,29.4012,-89.0355,1.0,26.717,11111222 
WAVCIS,ioos:station:WAVCIS:CSI16:1,2010-09-03T03:15:00Z,29.4012,-89.0355,1.0,26.464,11111222 
WAVCIS,ioos:station:WAVCIS:CSI16:1,2010-09-03T03:30:00Z,29.4012,-89.0355,1.0,26.374,11111222 
WAVCIS,ioos:station:WAVCIS:CSI16:1,2010-09-03T03:45:00Z,29.4012,-89.0355,1.0,26.773,11111222 
WAVCIS,ioos:station:WAVCIS:CSI16:1,2010-09-03T04:00:00Z,29.4012,-89.0355,1.0,27.469,11111222 
WAVCIS,ioos:station:WAVCIS:CSI16:1,2010-09-03T04:15:00Z,29.4012,-89.0355,1.0,27.618,11111222 
WAVCIS,ioos:station:WAVCIS:CSI16:1,2010-09-03T04:30:00Z,29.4012,-89.0355,1.0,27.334,11111222 
WAVCIS,ioos:station:WAVCIS:CSI16:1,2010-09-03T04:45:00Z,29.4012,-89.0355,1.0,26.2,11111222 
WAVCIS,ioos:station:WAVCIS:CSI16:1,2010-09-03T05:00:00Z,29.4012,-89.0355,1.0,26.633,11111222 
WAVCIS,ioos:station:WAVCIS:CSI16:1,2010-09-03T05:15:00Z,29.4012,-89.0355,1.0,26.626,11111222 
WAVCIS,ioos:station:WAVCIS:CSI16:1,2010-09-03T05:30:00Z,29.4012,-89.0355,1.0,26.754,11111222 
WAVCIS,ioos:station:WAVCIS:CSI16:1,2010-09-03T05:45:00Z,29.4012,-89.0355,1.0,26.971,11111222 
WAVCIS,ioos:station:WAVCIS:CSI16:1,2010-09-03T06:00:00Z,29.4012,-89.0355,1.0,27.234,11111222 
WAVCIS,ioos:station:WAVCIS:CSI16:1,2010-09-03T06:15:00Z,29.4012,-89.0355,1.0,27.588,11111222 
WAVCIS,ioos:station:WAVCIS:CSI16:1,2010-09-03T06:30:00Z,29.4012,-89.0355,1.0,27.685,11111222 
WAVCIS,ioos:station:WAVCIS:CSI16:1,2010-09-03T06:45:00Z,29.4012,-89.0355,1.0,27.716,11111222 
WAVCIS,ioos:station:WAVCIS:CSI16:1,2010-09-03T07:00:00Z,29.4012,-89.0355,1.0,27.764,11111222 
WAVCIS,ioos:station:WAVCIS:CSI16:1,2010-09-03T07:15:00Z,29.4012,-89.0355,1.0,24.646,11111222 
WAVCIS,ioos:station:WAVCIS:CSI16:1,2010-09-03T07:30:00Z,29.4012,-89.0355,1.0,26.089,11111222 
WAVCIS,ioos:station:WAVCIS:CSI16:1,2010-09-03T07:45:00Z,29.4012,-89.0355,1.0,27.07,11111222 
WAVCIS,ioos:station:WAVCIS:CSI16:1,2010-09-03T08:00:00Z,29.4012,-89.0355,1.0,27.556,11111222 
WAVCIS,ioos:station:WAVCIS:CSI16:1,2010-09-03T08:15:00Z,29.4012,-89.0355,1.0,27.678,11111222 
WAVCIS,ioos:station:WAVCIS:CSI16:1,2010-09-03T08:30:00Z,29.4012,-89.0355,1.0,27.724,11111222 
WAVCIS,ioos:station:WAVCIS:CSI16:1,2010-09-03T08:45:00Z,29.4012,-89.0355,1.0,27.784,11111222 
WAVCIS,ioos:station:WAVCIS:CSI16:1,2010-09-03T09:00:00Z,29.4012,-89.0355,1.0,27.859,11111222 
WAVCIS,ioos:station:WAVCIS:CSI16:1,2010-09-03T09:15:00Z,29.4012,-89.0355,1.0,27.901,11111222 
WAVCIS,ioos:station:WAVCIS:CSI16:1,2010-09-03T09:30:00Z,29.4012,-89.0355,1.0,27.917,11111222 
WAVCIS,ioos:station:WAVCIS:CSI16:1,2010-09-03T09:45:00Z,29.4012,-89.0355,1.0,27.946,11111222 
WAVCIS,ioos:station:WAVCIS:CSI16:1,2010-09-03T10:00:00Z,29.4012,-89.0355,1.0,28.003,11111222 
WAVCIS,ioos:station:WAVCIS:CSI16:1,2010-09-03T10:15:00Z,29.4012,-89.0355,1.0,28.027,11111222 
WAVCIS,ioos:station:WAVCIS:CSI16:1,2010-09-03T10:30:00Z,29.4012,-89.0355,1.0,28.011,11111222 
WAVCIS,ioos:station:WAVCIS:CSI16:1,2010-09-03T10:45:00Z,29.4012,-89.0355,1.0,28.046,11111222 
WAVCIS,ioos:station:WAVCIS:CSI16:1,2010-09-03T11:00:00Z,29.4012,-89.0355,1.0,28.064,11111222 
WAVCIS,ioos:station:WAVCIS:CSI16:1,2010-09-03T11:15:00Z,29.4012,-89.0355,1.0,28.065,11111222 
WAVCIS,ioos:station:WAVCIS:CSI16:1,2010-09-03T11:30:00Z,29.4012,-89.0355,1.0,28.067,11111222 
WAVCIS,ioos:station:WAVCIS:CSI16:1,2010-09-03T11:45:00Z,29.4012,-89.0355,1.0,28.056,11111222 
WAVCIS,ioos:station:WAVCIS:CSI16:1,2010-09-03T12:00:00Z,29.4012,-89.0355,1.0,28.1,11111222 
WAVCIS,ioos:station:WAVCIS:CSI16:1,2010-09-03T12:15:00Z,29.4012,-89.0355,1.0,27.951,11111222 
WAVCIS,ioos:station:WAVCIS:CSI16:1,2010-09-03T12:30:00Z,29.4012,-89.0355,1.0,27.822,11111222 
WAVCIS,ioos:station:WAVCIS:CSI16:1,2010-09-03T12:45:00Z,29.4012,-89.0355,1.0,27.731,11111222 
WAVCIS,ioos:station:WAVCIS:CSI16:1,2010-09-03T13:00:00Z,29.4012,-89.0355,1.0,27.547,11111222 
WAVCIS,ioos:station:WAVCIS:CSI16:1,2010-09-03T13:15:00Z,29.4012,-89.0355,1.0,26.592,11111222 
WAVCIS,ioos:station:WAVCIS:CSI16:1,2010-09-03T13:30:00Z,29.4012,-89.0355,1.0,26.946,11111222 
WAVCIS,ioos:station:WAVCIS:CSI16:1,2010-09-03T13:45:00Z,29.4012,-89.0355,1.0,27.007,11111222 
WAVCIS,ioos:station:WAVCIS:CSI16:1,2010-09-03T14:00:00Z,29.4012,-89.0355,1.0,26.529,11111222 
WAVCIS,ioos:station:WAVCIS:CSI16:1,2010-09-03T14:15:00Z,29.4012,-89.0355,1.0,25.713,11111222 
WAVCIS,ioos:station:WAVCIS:CSI16:1,2010-09-03T14:30:00Z,29.4012,-89.0355,1.0,25.27,11111222 
WAVCIS,ioos:station:WAVCIS:CSI16:1,2010-09-03T14:45:00Z,29.4012,-89.0355,1.0,24.558,11111222 
WAVCIS,ioos:station:WAVCIS:CSI16:1,2010-09-03T15:00:00Z,29.4012,-89.0355,1.0,24.595,11111222 
WAVCIS,ioos:station:WAVCIS:CSI16:1,2010-09-03T15:15:00Z,29.4012,-89.0355,1.0,23.574,11111222 